Skip Page Navigation
NASA JPL Caltech
NASA Logo - Jet Propulsion Laboratory + View the NASA Portal
+ Center for Near-Earth Object Studies
JPL Home Earth Solar System Stars & Galaxies Technology
JPL Solar System Dynamics
BODIES ORBITS EPHEMERIDES TOOLS PHYSICAL DATA DISCOVERY FAQ SITE MAP
JPL Small-Body Database Browser
Search: [ help ]  
48021 (2001 DN6)
Classification: Main-belt Asteroid          SPK-ID: 2048021
Ephemeris | Orbit Diagram | Orbital Elements | Mission Design | Physical Parameters | Discovery Circumstances | Close-Approach Data ]

[ show orbit diagram ]
Orbital Elements at Epoch 2459000.5 (2020-May-31.0) TDB
Reference: JPL 25 (heliocentric ecliptic J2000)
 Element Value Uncertainty (1-sigma)   Units 
e .1496301728913508 3.1324e-08  
a 2.280487371142722 8.7283e-09 au
q 1.939257651522094 6.8862e-08 au
i 5.629223344053925 5.139e-06 deg
node 11.64278089964013 3.578e-05 deg
peri 256.0794033053916 4.0229e-05 deg
M 134.348103578408 1.76e-05 deg
tp 2458531.072017904009
(2019-Feb-16.57201790)
6.1299e-05 TDB
period 1257.882091770122
3.44
7.2216e-06
1.977e-08
d
yr
n .2861953456173298 1.6431e-09 deg/d
Q 2.621717090763349 1.0034e-08 au
  Orbit Determination Parameters
   # obs. used (total)      1107  
   data-arc span      9758 days (26.72 yr)  
   first obs. used      1994-02-08  
   last obs. used      2020-10-27  
   planetary ephem.      DE431  
   SB-pert. ephem.      SB431-N16  
   condition code      0  
   norm. resid. RMS      .52626  
   source      ORB  
   producer      Otto Matic  
   solution date      2020-Nov-12 23:39:21  

Additional Information
 Earth MOID = .93293 au 
 Jupiter MOID = 2.47712 au 
 T_jup = 3.585 
[ show covariance matrix ]

Ephemeris | Orbit Diagram | Orbital Elements | Mission Design | Physical Parameters | Discovery Circumstances | Close-Approach Data ]

Physical Parameter Table
Parameter Symbol Value Units Sigma Reference Notes
absolute magnitude H 15.3   n/a MPO436118  
diameter diameter 2.651 km 0.668 urn:nasa:pds:neowise_diameters_albedos::2.0[mainbelt] (http://adsabs.harvard.edu/abs/2011ApJ...741...68M)  
geometric albedo albedo 0.145   0.058 urn:nasa:pds:neowise_diameters_albedos::2.0[mainbelt] (http://adsabs.harvard.edu/abs/2011ApJ...741...68M)  

48021 (2001 DN6)          Discovered 2001-Feb-16 by Korlevic, K. at Visnjan
Reference: 20020921/Numbers.arcLast Updated: 2004-04-19

[ show close-approach data ]
Alternate Designations
 2001 DN6 = 1994 CG17 
Ephemeris | Orbit Diagram | Orbital Elements | Mission Design | Physical Parameters | Discovery Circumstances | Close-Approach Data ]
ABOUT SSD CREDITS/AWARDS PRIVACY/COPYRIGHT GLOSSARY LINKS
FirstGov 2020-Dec-02 13:41 UT
(server date/time)  
NASA Home Page
Site Manager:   Ryan S. Park
Webmaster  Alan B. Chamberlin